OPS 4682 DEB, 38368

Orbit data source: Space-Track

OPS 4682 DEB, 38368 is space debris in LEO originally from a launch on Sat, 03 Apr 1965 UTC launched from the Air Force Western Test Range (AFWTR). Debris objects in space refer to the collection of defunct objects orbiting the Earth. Examples of debris include non-operational satellites, rocket bodies, and fragments generated from explosions, collisions, or faulty payload assembly.

Loading next visibility...
Identifier
38368, 1965-027BV
Orbit
LEO
Country
Flag of USUS
Related business
Manufacturer
Unknown
Mission
Spacecraft
Bus & Motor
Unknown
Mass
Unknown
Launch date (UTC)
1965-04-03 (61 years ago)
Launch vehicle
Unknown
Launch site
Air Force Western Test Range (AFWTR)
Object type
Payload
Rocket body
Debris
Shape & HBR
Unknown shape, 0.1 m
Radar Cross Section
Small (<0.1 m²)

Expand to show TLE details & history
Last TLE update: 23 hours ago

TLE from 23 hours ago
0 OPS 4682 DEB
1 38368U 65027BV  26105.43962697  .00000086  00000-0  27795-3 0  9995
2 38368  90.2527  11.5496 0021712 312.5425  47.3862 12.96069860654569
Epoch: 2026-04-15T10:33Z
TLE epoch observation values (Epoch: 2026-04-15T10:33:03.770Z)
Latitude
0.00006°
Longitude
9.68239°
Altitude
1,269.165 km
Speed
7.226 km/s
True Right ascension
00h 46m 11s
True Declination
0° 00' 00"
Sunlit
Object was in daylight at epoch
Visualization orbit readout
Latitude
Unknown
Longitude
Unknown
Altitude
Unknown
Speed
Unknown
Apparent Right ascension
Unknown
Apparent Declination
Unknown
Sunlit
N/A
Visualization observer readout
Local Sidereal Time
16:24:41
Azimuth
Unknown
Elevation
Unknown
Doppler factor
Unknown
Orbital elements
Apogee altitude
1,291.273 km
Perigee altitude
1,258.041 km
Semi-major axis
7,652.794 km
Eccentricity
0.00217
Inclination
90.2527°
RAAN
11.5496°
Arg. of periapsis
312.5425°
True anomaly
47.56964°
Mean anomaly
47.3862°
Eccentric anomaly
47.47789°
Mean motion
3.242 °/min
Orbital period
111.04 mins
BSTAR
0.00027795
Loading maneuver chart data...
Computing Atmospheric mass density...
Loading historical data...
Loading historical data...
Loading historical data...
Loading historical data...
Loading historical data...
Loading historical data...
Loading historical data...

Documentation

Showing up to 5 results
|